Location: ??????????
(54.8537°N, 38.8755°E)
Time: 22:46:16
(UTC+00:00)

Transit 2A Rocket - Pass Details

Date: 14 September 2024
Orbit: 582 x 908 km, 66.7° (Epoch: 09 October)

Event Time Altitude Azimuth Distance (km) Brightness Sun altitude
Exits shadow 20:18:54 16° 70° (ENE) 2,189 7.3 -30.8°
Drops below altitude 10° 20:20:28 10° 58° (ENE) 2,603 7.9 -30.9°
Sets 20:23:26 0° 46° (NE) 3,541 8.8 -31.0°
